| time (UTC) | temp F | wind direction | speed MPH | gust MPH | rain 1hr in | rain 24hr in | rain mn in | humidity % | barometer mb |
| 20260504040016 | 42 | 0.0 | 0.0 | 0.00 | 0.00 | 0.00 | 57 | 1011.6 | |
| 20260504033017 | 43 | 0.0 | 0.0 | 0.00 | 0.00 | 0.00 | 55 | 1011.7 | |
| 20260504030016 | 44 | 0.0 | 0.0 | 0.00 | 0.00 | 0.00 | 55 | 1011.5 | |
| 20260504023018 | 45 | 0.0 | 0.0 | 0.00 | 0.00 | 0.00 | 51 | 1011.5 | |
| 20260504020016 | 47 | 0.0 | 0.0 | 0.00 | 0.00 | 0.00 | 48 | 1011.3 | |
| 20260504013016 | 48 | 0.0 | 0.0 | 0.00 | 0.00 | 0.00 | 42 | 1011.2 | |
| 20260504010036 | 49 | 0.0 | 0.0 | 0.00 | 0.00 | 0.00 | 39 | 1011.0 | |
| 20260504003038 | 52 | 0.0 | 0.0 | 0.00 | 0.00 | 0.00 | 34 | 1010.8 | |
| 20260504000017 | 55 | 0.0 | 3.0 | 0.00 | 0.00 | 0.00 | 30 | 1010.2 | |
| 20260503233016 | 56 | 0.0 | 2.0 | 0.00 | 0.00 | 0.00 | 26 | 1010.0 | |
| 20260503230016 | 56 | 0.0 | 3.0 | 0.00 | 0.00 | 0.00 | 24 | 1009.7 | |
| 20260503223036 | 57 | 338 | 1.0 | 3.0 | 0.00 | 0.00 | 0.00 | 21 | 1009.5 |
| 20260503220016 | 58 | 23 | 1.0 | 4.0 | 0.00 | 0.00 | 0.00 | 22 | 1009.5 |
| 20260503213036 | 58 | 23 | 1.0 | 8.0 | 0.00 | 0.00 | 0.00 | 19 | 1009.2 |
| 20260503210016 | 58 | 23 | 2.0 | 7.0 | 0.00 | 0.00 | 0.00 | 21 | 1009.3 |
| 20260503203016 | 57 | 0 | 1.0 | 7.0 | 0.00 | 0.00 | 0.00 | 25 | 1009.5 |
| 20260503200016 | 55 | 23 | 1.0 | 10.0 | 0.00 | 0.00 | 0.00 | 26 | 1009.7 |
| 20260503193056 | 56 | 23 | 2.0 | 8.0 | 0.00 | 0.00 | 0.00 | 25 | 1010.1 |
| 20260503190036 | 55 | 315 | 2.0 | 12.0 | 0.00 | 0.00 | 0.00 | 27 | 1010.4 |
| 20260503183016 | 56 | 23 | 2.0 | 8.0 | 0.00 | 0.00 | 0.00 | 28 | 1010.7 |
| 20260503180017 | 52 | 23 | 3.0 | 7.0 | 0.00 | 0.00 | 0.00 | 32 | 1011.0 |
| 20260503173016 | 52 | 338 | 2.0 | 8.0 | 0.00 | 0.00 | 0.00 | 32 | 1011.1 |
| 20260503053036 | 42 | 0.0 | 0.0 | 0.00 | 0.18 | 0.00 | 56 | 1011.7 | |
| 20260503050016 | 42 | 0.0 | 1.0 | 0.00 | 0.21 | 0.00 | 53 | 1011.9 | |
| 20260503043016 | 43 | 0.0 | 1.0 | 0.00 | 0.22 | 0.00 | 52 | 1012.0 |